Weather History for Jackson, KY

Change the Weather History Date:

Tuesday, December 23, 2014

  Actual Average Record
Temperature  
Mean Temperature 57 °F 36 °F  
Max Temperature 63 °F 44 °F 63 °F (1996)
Min Temperature 50 °F 28 °F -10 °F (1989)
Degree Days  
Heating Degree Days 8 29  
Month to date heating degree days 560 600  
Since 1 July heating degree days 1550 1400  
Cooling Degree Days 0 0  
Month to date cooling degree days 0 0  
Year to date cooling degree days 1165 1154  
Growing Degree Days 6 (Base 50)    
Moisture  
Dew Point 51 °F    
Average Humidity 80    
Maximum Humidity 93    
Minimum Humidity 67    
Precipitation  
Precipitation 0.33 in 0.13 in 0.82 in (1991)
Month to date precipitation 1.97 3.16  
Year to date precipitation 53.36 47.32  
Snow  
Snow 0.00 in 0.20 in - ()
Month to date snowfall T 3.2  
Since 1 July snowfall 1.2 3.8  
Snow Depth 0.00 in    
Sea Level Pressure  
Sea Level Pressure 29.80 in    
Wind  
Wind Speed 4 mph (South)    
Max Wind Speed 9 mph    
Max Gust Speed 16 mph    
Visibility 8 miles    
Events Rain    
T = Trace of Precipitation, MM = Missing Value Source: NWS Daily Summary

Daily Weather History Graph

Daily Weather History Graph

Search for Another Location

Airport:

Trip Planner

Search our weather history database for the weather conditions in past years. The results will help you decide how hot, cold, wet, or windy it might be!

Date:

Astronomy

Dec. 23, 2014 Rise Set
Actual Time 7:45 AM EST 5:19 PM EST
Civil Twilight 7:16 AM EST 5:48 PM EST
Nautical Twilight 6:43 AM EST 6:21 PM EST
Astronomical Twilight 6:11 AM EST 6:53 PM EST
Moon 8:51 AM EST (12/23) 7:31 PM EST (12/23)
Length of Visible Light 10h 32m
Length of Day
9h 34m
Waxing Crescent, 4% of the Moon is Illuminated
Dec 23
Waxing Crescent
Dec 28
First Quarter
Jan 4
Full
Jan 13
Last Quarter
Jan 20
New

Hourly Weather History & Observations

Time (EST) Temp. Dew Point Humidity Pressure Visibility Wind Dir Wind Speed Gust Speed Precip Events Conditions
12:53 AM 51.1 °F 41.0 °F 68% 29.78 in 10.0 mi Variable 3.5 mph - 0.00 in Rain Light Rain
1:53 AM 50.0 °F 46.9 °F 89% 29.78 in 4.0 mi Variable 3.5 mph - 0.02 in Rain Light Rain
2:48 AM 50.0 °F 48.2 °F 94% 29.80 in 10.0 mi Variable 3.5 mph - 0.00 in   Overcast
2:53 AM 51.1 °F 48.0 °F 89% 29.79 in 10.0 mi SW 3.5 mph - 0.00 in   Overcast
3:53 AM 51.1 °F 48.9 °F 92% 29.81 in 10.0 mi SSW 4.6 mph - N/A   Overcast
4:06 AM 51.1 °F 48.9 °F 92% 29.82 in 10.0 mi Variable 3.5 mph - N/A   Overcast
4:53 AM 53.1 °F 48.0 °F 83% 29.78 in 10.0 mi South 8.1 mph - N/A   Mostly Cloudy
5:19 AM 52.0 °F 48.9 °F 89% 29.80 in 10.0 mi Variable 3.5 mph - N/A   Mostly Cloudy
5:53 AM 53.1 °F 48.0 °F 83% 29.80 in 10.0 mi Variable 3.5 mph - N/A   Overcast
6:02 AM 52.0 °F 48.0 °F 86% 29.82 in 10.0 mi SW 3.5 mph - N/A   Overcast
6:46 AM 52.0 °F 48.9 °F 89% 29.83 in 10.0 mi SSW 3.5 mph - 0.00 in   Overcast
6:53 AM 52.0 °F 48.9 °F 89% 29.83 in 10.0 mi Calm Calm - 0.00 in   Overcast
7:49 AM 53.6 °F 48.2 °F 82% 29.83 in 10.0 mi Variable 3.5 mph - 0.00 in Rain Light Rain
7:53 AM 53.1 °F 48.9 °F 86% 29.82 in 10.0 mi South 5.8 mph - 0.00 in Rain Light Rain
8:38 AM 54.0 °F 48.9 °F 83% 29.84 in 10.0 mi Variable 4.6 mph - 0.00 in   Overcast
8:48 AM 53.6 °F 48.2 °F 82% 29.85 in 10.0 mi SSW 5.8 mph - 0.00 in   Overcast
8:53 AM 54.0 °F 48.9 °F 83% 29.84 in 10.0 mi SSW 5.8 mph - 0.00 in   Overcast
9:20 AM 55.0 °F 48.9 °F 80% 29.86 in 10.0 mi Variable 4.6 mph - 0.00 in Rain Light Rain
9:27 AM 55.9 °F 50.0 °F 80% 29.85 in 10.0 mi Variable 3.5 mph - 0.00 in   Overcast
9:53 AM 57.0 °F 50.0 °F 77% 29.85 in 10.0 mi South 6.9 mph - 0.00 in   Scattered Clouds
10:53 AM 60.1 °F 51.1 °F 72% 29.85 in 10.0 mi SSW 5.8 mph - N/A   Partly Cloudy
11:53 AM 62.1 °F 51.1 °F 67% 29.83 in 10.0 mi Variable 4.6 mph - N/A   Mostly Cloudy
12:53 PM 61.0 °F 51.1 °F 70% 29.81 in 10.0 mi South 5.8 mph - N/A   Overcast
1:04 PM 61.0 °F 51.1 °F 70% 29.81 in 10.0 mi South 6.9 mph - N/A   Overcast
1:53 PM 61.0 °F 51.1 °F 70% 29.80 in 10.0 mi Variable 3.5 mph - N/A   Overcast
2:02 PM 62.1 °F 51.1 °F 67% 29.81 in 10.0 mi Variable 3.5 mph - N/A   Overcast
2:53 PM 60.1 °F 52.0 °F 75% 29.77 in 9.0 mi SSE 4.6 mph - 0.00 in Rain Light Rain
3:53 PM 60.1 °F 52.0 °F 75% 29.77 in 10.0 mi Calm Calm - 0.00 in Rain Light Rain
4:53 PM 57.0 °F 53.1 °F 87% 29.76 in 10.0 mi NE 4.6 mph - 0.00 in Rain Light Rain
5:53 PM 57.9 °F 53.1 °F 84% 29.77 in 10.0 mi Calm Calm - 0.00 in   Overcast
6:53 PM 55.9 °F 53.1 °F 90% 29.78 in 7.0 mi Calm Calm - 0.02 in Rain Light Rain
7:53 PM 55.9 °F 53.1 °F 90% 29.78 in 10.0 mi ESE 5.8 mph - 0.05 in Rain Light Rain
8:53 PM 55.9 °F 54.0 °F 93% 29.77 in 3.0 mi Calm Calm - 0.12 in Rain Light Rain
9:29 PM 55.9 °F 54.0 °F 93% 29.79 in 1.8 mi East 3.5 mph - 0.05 in Rain Light Rain
9:36 PM 55.9 °F 54.0 °F 93% 29.79 in 1.0 mi ESE 3.5 mph - 0.05 in Rain Light Rain
9:53 PM 55.9 °F 54.0 °F 93% 29.78 in 1.2 mi SE 5.8 mph - 0.07 in Rain Light Rain
9:57 PM 55.9 °F 54.0 °F 93% 29.79 in 2.0 mi SE 4.6 mph - 0.01 in Rain Light Rain
10:05 PM 55.9 °F 55.0 °F 97% 29.79 in 4.0 mi SE 5.8 mph - 0.02 in Rain Light Rain
10:24 PM 55.9 °F 55.0 °F 97% 29.79 in 1.5 mi Calm Calm - 0.04 in Rain Light Rain
10:32 PM 55.9 °F 54.0 °F 93% 29.79 in 0.8 mi Variable 3.5 mph - 0.04 in Rain Light Rain
10:36 PM 55.9 °F 55.0 °F 97% 29.79 in 1.8 mi Calm Calm - 0.04 in Rain Light Rain
10:53 PM 55.9 °F 54.0 °F 93% 29.78 in 3.0 mi SSW 3.5 mph - 0.04 in Rain Light Rain
11:53 PM 55.9 °F 54.0 °F 93% 29.76 in 9.0 mi Calm Calm - 0.01 in   Overcast